sat.trackr.live / text

‹ back to catalog

STARLINK-34850

NORAD 65460 · 2025-195C

PAYLOAD ACTIVE UNKNOWN

§ Identity

Operator
Country
US
Launch date
2025-09-03
Launch site
AFETR
Launch vehicle
Mass (kg)
RCS (m²)

Purposes: comms

External: N2YO · Heavens-Above · Gunter

§ Orbital elements

Epoch: 2026-09-20T21:24:46.619136Z

Period
93.85 min
Inclination
53.1596°
Eccentricity
0.0001546
Mean motion
15.34404449 rev/d
Perigee alt
461.6 km
Apogee alt
463.7 km
Semi-major
6,840.8 km
B*
3.0467e-4
RAAN
67.6871°
Arg perigee
85.9678°
Mean anomaly
274.1501°
Rev number
5,993

§ Raw data

STARLINK-348501 65460U 25195C   26263.89220624  .00009932  00000+0  30467-3 0  99902 65460  53.1596  67.6871 0001546  85.9678 274.1501 15.34404449 59930

JSON: /api/v1/satellites/65460 · /tle

For live sub-satellite position, see the globe view (requires WebGL).

§ Visibility from observer

Set your observer location to see the next 7 days of passes ≥ 10°. The values pass through the URL so the page stays shareable.

No JS? Fill the form by hand. The geolocation button needs JavaScript.